Regional Weather Roundup
Issued by NWS

Home | Current Version | Previous Version | Graphics & Text | Print | Product List | Glossary On
Versions: 1 2 3 4 5 6 7 8 9 10 11 12 13 14 15 16 17 18 19 20 21 22 23 24 25 26 27 28 29 30 31 32 33 34 35 36 37 38 39 40 41 42 43 44 45 46 47 48 49 50
000
ASUS43 KLMK 250902
RWRKY
KENTUCKY REGIONAL WEATHER ROUNDUP
NATIONAL WEATHER SERVICE LOUISVILLE KY
500 AM EDT THU AUG 25 2016

NOTE "FAIR" INDICATES FEW OR NO CLOUDS BELOW 12,000 FEET
WITH NO SIGNIFICANT WEATHER AND/OR OBSTRUCTIONS TO VISIBILITY.

KYZ001>023-026-027-061>063-070>075-251000-
WESTERN AND SOUTH CENTRAL KENTUCKY

CITY           SKY/WX    TMP DP  RH WIND       PRES   REMARKS
PADUCAH        CLEAR     73  71  93 CALM      30.07S
HENDERSON      CLEAR     72  68  88 SW3       30.07S
OWENSBORO      CLEAR     75  75 100 S5        30.09S
HOPKINSVILLE   CLEAR     76  74  91 S3        30.10F
BOWLING GREEN  CLEAR     74  72  93 SE3       30.12S
GLASGOW        CLEAR     72  72 100 CALM      30.13S
$$

KYZ024-025-028>034-038-045-046-053-251000-
NORTH CENTRAL KENTUCKY

CITY           SKY/WX    TMP DP  RH WIND       PRES   REMARKS
LOUISVILLE/SDF PTCLDY    80  73  79 SW7       30.09S
LOUISVILLE/LOU CLEAR     79  72  79 SW5       30.10S
FORT KNOX      CLEAR     73  71  95 SW3       30.10S
$$

KYZ035>037-039>044-047>052-055>060-089>105-251000-
NORTHEAST KENTUCKY

CITY           SKY/WX    TMP DP  RH WIND       PRES   REMARKS
LEXINGTON      CLEAR     73  70  90 S7        30.13S
COVINGTON      CLOUDY    77  74  90 SW6       30.09S
FRANKFORT      CLEAR     75  71  87 SW7       30.10F
$$

KYZ054-064>069-076>088-106>120-251000-
SOUTHEAST KENTUCKY

CITY           SKY/WX    TMP DP  RH WIND       PRES   REMARKS
JACKSON        CLEAR     73  69  87 CALM      30.17R
LONDON         CLEAR     70  67  90 CALM      30.18R
SOMERSET       CLEAR     72  72 100 CALM      30.17R
MIDDLESBORO    CLEAR     67  67 100 CALM      30.20R
MONTICELLO     SUNNY    N/A N/A N/A W12       30.18R
$$





USA.gov is the U.S. government's official web portal to all federal, state and local government web resources and services.